DW6344 Weather Reports


Display with metric or nautical units.
time (UTC)temp
F
wind
direction
speed
MPH
gust
MPH
rain 1hr
in
rain 24hr
in
rain mn
in
humidity
%
barometer
mb
20260505082835 62 336 0.0 4.0 0.00 0.00 0.00 65 1011.8
20260505082334 62 88 0.0 3.0 0.00 0.00 0.00 65 1011.8
20260505081838 62 88 0.0 3.0 0.00 0.00 0.00 65 1011.9
20260505081356 62 93 1.0 3.0 0.00 0.00 0.00 64 1011.9
20260505080842 62 89 0.0 2.0 0.00 0.00 0.00 64 1011.8
20260505080359 62 89 1.0 2.0 0.00 0.00 0.00 64 1011.8
20260505075839 62 89 1.0 2.0 0.00 0.00 0.00 64 1011.7
20260505075336 63 89 0.0 2.0 0.00 0.00 0.00 64 1011.7
20260505074914 63 89 1.0 3.0 0.00 0.00 0.00 64 1011.7
20260505074343 63 74 0.0 6.0 0.00 0.00 0.00 63 1011.6
20260505073849 63 84 1.0 6.0 0.00 0.00 0.00 63 1011.6
20260505073332 63 355 0.0 3.0 0.00 0.00 0.00 63 1011.4
20260505072846 63 65 1.0 3.0 0.00 0.00 0.00 62 1011.4
20260505072337 63 229 1.0 4.0 0.00 0.00 0.00 63 1011.4
20260505071836 63 143 1.0 4.0 0.00 0.00 0.00 63 1011.4
20260505071337 63 78 1.0 4.0 0.00 0.00 0.00 63 1011.3
20260505070847 63 78 1.0 4.0 0.00 0.00 0.00 63 1011.4
20260505070352 63 71 1.0 2.0 0.00 0.00 0.00 62 1011.4
20260505065842 63 71 0.0 2.0 0.00 0.00 0.00 62 1011.3
20260505065344 64 74 0.0 4.0 0.00 0.00 0.00 62 1011.4
20260505064830 64 75 0.0 4.0 0.00 0.00 0.00 62 1011.4
20260505064332 64 59 1.0 3.0 0.00 0.00 0.00 62 1011.4
20260505063858 64 78 1.0 3.0 0.00 0.00 0.00 61 1011.4
20260505063340 64 65 1.0 3.0 0.00 0.00 0.00 61 1011.4
20260505062854 64 234 1.0 3.0 0.00 0.00 0.00 61 1011.5
20260505062328 64 15 1.0 4.0 0.00 0.00 0.00 61 1011.5
20260505061845 64 331 1.0 4.0 0.00 0.00 0.00 61 1011.4
20260505061343 64 82 0.0 3.0 0.00 0.00 0.00 61 1011.5
20260505060838 65 77 0.0 6.0 0.00 0.00 0.00 61 1011.5
20260505060333 65 77 1.0 6.0 0.00 0.00 0.00 60 1011.5
20260505055834 65 360 0.0 5.0 0.00 0.00 0.00 61 1011.4
20260505055337 65 355 2.0 5.0 0.00 0.00 0.00 60 1011.4
20260505054910 65 41 1.0 6.0 0.00 0.00 0.00 61 1011.6
20260505054335 65 82 1.0 6.0 0.00 0.00 0.00 60 1011.6
20260505053858 65 87 1.0 5.0 0.00 0.00 0.00 61 1011.7
20260505053350 65 88 2.0 5.0 0.00 0.00 0.00 61 1011.6
20260505052844 65 123 0.0 3.0 0.00 0.00 0.00 60 1011.6
20260505052401 65 124 1.0 5.0 0.00 0.00 0.00 60 1011.5
20260505051839 65 307 1.0 5.0 0.00 0.00 0.00 60 1011.5
20260505051407 65 92 1.0 6.0 0.00 0.00 0.00 60 1011.7
20260505050845 65 271 1.0 4.0 0.00 0.00 0.00 60 1011.6
20260505050349 65 40 1.0 4.0 0.00 0.00 0.00 59 1011.4
20260505041358 66 321 2.0 4.0 0.00 0.00 0.00 60 1011.5
20260505040833 66 76 1.0 3.0 0.00 0.00 0.00 59 1011.5
20260505040335 66 355 1.0 3.0 0.00 0.00 0.00 60 1011.4
20260505035853 66 91 0.0 3.0 0.00 0.00 0.00 59 1011.4
20260505035331 66 105 0.0 2.0 0.00 0.00 0.00 59 1011.4
20260505034836 66 84 1.0 3.0 0.00 0.00 0.00 58 1011.3
20260505034349 66 88 1.0 3.0 0.00 0.00 0.00 58 1011.2
20260505033849 66 88 1.0 3.0 0.00 0.00 0.00 57 1011.2
20260505033336 67 44 1.0 4.0 0.00 0.00 0.00 57 1011.2
20260505032839 67 78 1.0 4.0 0.00 0.00 0.00 56 1011.3
20260505032335 67 5 1.0 4.0 0.00 0.00 0.00 56 1011.2
20260505031837 67 22 1.0 4.0 0.00 0.00 0.00 55 1011.2
20260505031335 67 40 1.0 4.0 0.00 0.00 0.00 55 1011.2
20260505030832 67 155 1.0 5.0 0.00 0.00 0.00 55 1011.1
20260505030335 67 109 1.0 4.0 0.00 0.00 0.00 54 1011.1
20260505025840 67 114 1.0 9.0 0.00 0.00 0.00 53 1011.1
20260505025335 67 47 1.0 4.0 0.00 0.00 0.00 53 1011.1
20260505024836 67 98 1.0 3.0 0.00 0.00 0.00 53 1011.0
20260505024336 66 69 1.0 5.0 0.00 0.00 0.00 53 1011.0
20260505023837 65 18 1.0 5.0 0.00 0.00 0.00 53 1010.9
20260505023355 65 34 1.0 2.0 0.00 0.00 0.00 52 1010.9
20260505022858 65 34 0.0 2.0 0.00 0.00 0.00 53 1010.9
20260505022334 64 34 0.0 1.0 0.00 0.00 0.00 53 1010.8
20260505021841 65 34 0.0 2.0 0.00 0.00 0.00 54 1010.6
20260505021339 64 34 0.0 2.0 0.00 0.00 0.00 53 1010.5
20260505020902 64 34 0.0 2.0 0.00 0.00 0.00 53 1010.5
20260505020350 64 205 0.0 2.0 0.00 0.00 0.00 52 1010.5
20260505015850 64 205 0.0 2.0 0.00 0.00 0.00 55 1010.6
20260505015335 63 227 0.0 0.0 0.00 0.00 0.00 54 1010.5
20260505014857 64 227 0.0 1.0 0.00 0.00 0.00 54 1010.5
20260505014358 64 227 0.0 1.0 0.00 0.00 0.00 54 1010.5
20260505013835 64 227 0.0 0.0 0.00 0.00 0.00 54 1010.5
20260505013345 64 227 0.0 0.0 0.00 0.00 0.00 54 1010.5
20260505012847 64 227 0.0 0.0 0.00 0.00 0.00 54 1010.4
20260505012327 64 227 0.0 0.0 0.00 0.00 0.00 54 1010.3
20260505011844 64 227 0.0 0.0 0.00 0.00 0.00 53 1010.3
20260505011402 64 227 0.0 0.0 0.00 0.00 0.00 53 1010.3
20260505010857 65 227 0.0 0.0 0.00 0.00 0.00 52 1010.4
20260505010404 65 227 0.0 0.0 0.00 0.00 0.00 52 1010.4
20260505005853 65 227 0.0 0.0 0.00 0.00 0.00 51 1010.3
20260505005340 66 227 0.0 0.0 0.00 0.00 0.00 50 1010.3
20260505004843 66 227 0.0 0.0 0.00 0.00 0.00 50 1010.3
20260505004343 67 227 0.0 0.0 0.00 0.00 0.00 48 1010.2
20260505003922 67 227 0.0 0.0 0.00 0.00 0.00 48 1010.3
20260505003359 68 227 0.0 0.0 0.00 0.00 0.00 47 1010.1
20260505002831 68 227 0.0 0.0 0.00 0.00 0.00 46 1010.1
20260505002332 69 227 0.0 0.0 0.00 0.00 0.00 44 1010.1
20260505001835 69 227 0.0 1.0 0.00 0.00 0.00 43 1009.9
20260505001342 70 227 0.0 1.0 0.00 0.00 0.00 42 1009.9
20260505000834 70 65 0.0 0.0 0.00 0.00 0.00 41 1009.8
20260505000334 71 66 0.0 0.0 0.00 0.00 0.00 41 1009.7
20260504235848 72 66 0.0 0.0 0.00 0.00 0.00 41 1009.7
20260504235350 72 66 0.0 0.0 0.00 0.00 0.00 39 1009.7
20260504234845 73 65 0.0 1.0 0.00 0.00 0.00 38 1009.7
20260504234402 73 66 0.0 1.0 0.00 0.00 0.00 37 1009.7
20260504233858 74 66 0.0 2.0 0.00 0.00 0.00 36 1009.7
20260504233342 74 66 0.0 2.0 0.00 0.00 0.00 36 1009.6
20260504232838 74 65 0.0 2.0 0.00 0.00 0.00 35 1009.6
20260504232333 75 65 0.0 1.0 0.00 0.00 0.00 35 1009.5
20260504231841 75 66 0.0 2.0 0.00 0.00 0.00 35 1009.5
20260504231340 75 66 0.0 2.0 0.00 0.00 0.00 34 1009.4
20260504230842 75 65 0.0 2.0 0.00 0.00 0.00 34 1009.4
20260504230347 75 60 0.0 2.0 0.00 0.00 0.00 34 1009.4
20260504225840 75 60 0.0 2.0 0.00 0.00 0.00 34 1009.4
20260504225403 76 71 0.0 2.0 0.00 0.00 0.00 32 1009.4
20260504224904 76 71 1.0 3.0 0.00 0.00 0.00 33 1009.4
20260504224341 76 71 0.0 3.0 0.00 0.00 0.00 32 1009.4
20260504223846 77 60 0.0 2.0 0.00 0.00 0.00 33 1009.4
20260504223407 77 63 0.0 2.0 0.00 0.00 0.00 31 1009.4
20260504222902 77 51 1.0 5.0 0.00 0.00 0.00 32 1009.4
20260504222353 77 63 1.0 5.0 0.00 0.00 0.00 30 1009.4
20260504221855 78 316 1.0 4.0 0.00 0.00 0.00 30 1009.4
20260504221346 78 150 1.0 4.0 0.00 0.00 0.00 29 1009.4
20260504220828 78 326 2.0 3.0 0.00 0.00 0.00 29 1009.4
20260504220341 78 58 0.0 5.0 0.00 0.00 0.00 30 1009.4
20260504215851 78 177 2.0 5.0 0.00 0.00 0.00 28 1009.4
20260504215347 78 231 1.0 3.0 0.00 0.00 0.00 28 1009.4
20260504214846 79 360 1.0 3.0 0.00 0.00 0.00 28 1009.3
20260504214330 79 87 1.0 4.0 0.00 0.00 0.00 28 1009.3
20260504213853 79 158 1.0 4.0 0.00 0.00 0.00 29 1009.5
20260504213335 79 59 0.0 5.0 0.00 0.00 0.00 28 1009.5
20260504212856 79 91 1.0 5.0 0.00 0.00 0.00 27 1009.5
20260504212337 79 79 1.0 5.0 0.00 0.00 0.00 28 1009.6
20260504211835 79 81 1.0 5.0 0.00 0.00 0.00 28 1009.5
20260504211334 80 324 2.0 5.0 0.00 0.00 0.00 28 1009.4
20260504210836 80 46 1.0 4.0 0.00 0.00 0.00 27 1009.4
20260504210342 81 107 1.0 6.0 0.00 0.00 0.00 27 1009.5
20260504205839 81 52 1.0 3.0 0.00 0.00 0.00 27 1009.6
20260504205350 82 67 1.0 5.0 0.00 0.00 0.00 27 1009.4
20260504204857 82 55 1.0 5.0 0.00 0.00 0.00 25 1009.5
20260504204353 82 327 1.0 4.0 0.00 0.00 0.00 27 1009.6
20260504203909 83 137 1.0 5.0 0.00 0.00 0.00 26 1009.5
20260504203332 83 91 1.0 5.0 0.00 0.00 0.00 26 1009.4
20260504202848 83 314 1.0 2.0 0.00 0.00 0.00 25 1009.5
20260504202334 83 85 1.0 2.0 0.00 0.00 0.00 26 1009.5
20260504201838 83 107 0.0 4.0 0.00 0.00 0.00 25 1009.5
20260504201340 83 106 1.0 4.0 0.00 0.00 0.00 25 1009.7
20260504200831 82 52 1.0 3.0 0.00 0.00 0.00 25 1009.7
20260504200336 82 57 0.0 3.0 0.00 0.00 0.00 24 1009.8
20260504195910 83 347 1.0 3.0 0.00 0.00 0.00 24 1009.9
20260504195408 83 209 1.0 3.0 0.00 0.00 0.00 24 1009.8
20260504194842 83 60 0.0 2.0 0.00 0.00 0.00 25 1009.9
20260504194357 83 72 0.0 2.0 0.00 0.00 0.00 25 1010.1
20260504193851 82 318 0.0 2.0 0.00 0.00 0.00 25 1010.1
20260504193335 82 330 0.0 2.0 0.00 0.00 0.00 26 1010.1
20260504192839 82 126 0.0 4.0 0.00 0.00 0.00 24 1010.3
20260504192332 81 355 0.0 2.0 0.00 0.00 0.00 27 1010.4
20260504191848 79 325 1.0 3.0 0.00 0.00 0.00 27 1010.4
20260504191340 79 41 1.0 3.0 0.00 0.00 0.00 26 1010.5
20260504190840 79 119 0.0 4.0 0.00 0.00 0.00 26 1010.6
20260504190341 79 53 0.0 4.0 0.00 0.00 0.00 25 1010.9
20260504185854 79 67 0.0 2.0 0.00 0.00 0.00 24 1010.9
20260504185401 79 67 1.0 3.0 0.00 0.00 0.00 25 1010.9
20260504184837 78 118 1.0 3.0 0.00 0.00 0.00 27 1011.2
20260504184403 77 265 0.0 3.0 0.00 0.00 0.00 26 1011.1
20260504183844 78 254 1.0 6.0 0.00 0.00 0.00 24 1011.1
20260504183344 79 346 1.0 6.0 0.00 0.00 0.00 24 1011.1
20260504182835 79 52 1.0 4.0 0.00 0.00 0.00 26 1011.1
20260504182400 79 323 1.0 4.0 0.00 0.00 0.00 26 1011.2
20260504181850 79 40 1.0 3.0 0.00 0.00 0.00 29 1011.2
20260504181347 78 5 2.0 3.0 0.00 0.00 0.00 28 1011.2
20260504180856 78 266 1.0 3.0 0.00 0.00 0.00 28 1011.3
20260504180358 78 249 1.0 3.0 0.00 0.00 0.00 28 1011.4
20260504175836 77 56 0.0 3.0 0.00 0.00 0.00 28 1011.4
20260504175334 77 61 1.0 4.0 0.00 0.00 0.00 29 1011.4
20260504174858 77 46 1.0 4.0 0.00 0.00 0.00 27 1011.4
20260504174327 77 277 1.0 3.0 0.00 0.00 0.00 26 1011.6
20260504173836 77 46 1.0 3.0 0.00 0.00 0.00 27 1011.7
20260504173336 77 59 0.0 8.0 0.00 0.00 0.00 26 1011.6
20260504172902 78 187 1.0 8.0 0.00 0.00 0.00 25 1011.7
20260504172356 79 18 2.0 4.0 0.00 0.00 0.00 26 1011.8
20260504171900 78 140 1.0 3.0 0.00 0.00 0.00 26 1011.8
20260504171339 78 323 1.0 3.0 0.00 0.00 0.00 26 1011.9
20260504170858 77 30 1.0 3.0 0.00 0.00 0.00 28 1012.0
20260504170334 77 297 1.0 3.0 0.00 0.00 0.00 26 1012.1
20260504160336 75 19 0.0 2.0 0.00 0.00 0.00 30 1012.8
20260504150836 72 48 0.0 3.0 0.00 0.00 0.00 38 1013.3
20260504150332 72 23 1.0 3.0 0.00 0.00 0.00 38 1013.3
20260504140829 67 38 0.0 3.0 0.00 0.00 0.00 47 1013.4
20260504140416 66 355 1.0 3.0 0.00 0.00 0.00 47 1013.5
20260504130344 61 290 1.0 4.0 0.00 0.00 0.00 54 1014.0
20260504110350 53 198 0.0 0.0 0.00 0.00 0.00 68 1014.2
20260504100342 52 36 0.0 4.0 0.00 0.00 0.00 68 1013.9